TimeEDT,TemperatureF,Dew PointF,Humidity,Sea Level PressureIn,VisibilityMPH,Wind Direction,Wind SpeedMPH,Gust SpeedMPH,PrecipitationIn,Events,Conditions,WindDirDegrees,DateUTC
12:52 AM,59.0,54.0,83,29.99,10.0,WNW,5.8,-,0.00,,Mostly Cloudy,300,2012-10-07 04:52:00
1:52 AM,59.0,53.1,81,29.99,10.0,NW,13.8,-,N/A,,Mostly Cloudy,310,2012-10-07 05:52:00
2:52 AM,57.0,52.0,83,30.00,10.0,NNW,11.5,-,N/A,,Scattered Clouds,330,2012-10-07 06:52:00
3:52 AM,55.9,51.1,84,29.99,10.0,NW,8.1,-,N/A,,Scattered Clouds,310,2012-10-07 07:52:00
4:52 AM,55.0,50.0,83,29.99,10.0,NW,8.1,-,N/A,,Mostly Cloudy,310,2012-10-07 08:52:00
5:52 AM,54.0,48.9,83,29.98,10.0,NW,8.1,-,N/A,,Mostly Cloudy,320,2012-10-07 09:52:00
6:52 AM,54.0,48.9,83,30.00,10.0,NW,5.8,-,N/A,,Scattered Clouds,310,2012-10-07 10:52:00
7:52 AM,54.0,48.9,83,30.01,10.0,NW,6.9,-,N/A,,Mostly Cloudy,310,2012-10-07 11:52:00
8:52 AM,55.0,48.9,80,30.03,10.0,NNW,9.2,-,N/A,,Mostly Cloudy,330,2012-10-07 12:52:00
9:52 AM,57.9,50.0,75,30.05,10.0,NW,10.4,-,N/A,,Mostly Cloudy,320,2012-10-07 13:52:00
10:52 AM,60.1,50.0,69,30.07,10.0,NW,12.7,-,N/A,,Mostly Cloudy,320,2012-10-07 14:52:00
11:52 AM,62.1,50.0,65,30.07,10.0,NW,11.5,-,N/A,,Mostly Cloudy,310,2012-10-07 15:52:00
12:52 PM,64.9,51.1,61,30.07,10.0,NW,15.0,21.9,N/A,,Mostly Cloudy,310,2012-10-07 16:52:00
1:52 PM,66.9,50.0,54,30.06,10.0,NNW,16.1,26.5,N/A,,Mostly Cloudy,340,2012-10-07 17:52:00
2:52 PM,66.0,48.9,54,30.05,10.0,NW,15.0,-,N/A,,Mostly Cloudy,320,2012-10-07 18:52:00
3:52 PM,64.9,48.9,56,30.04,10.0,NW,16.1,21.9,N/A,,Mostly Cloudy,320,2012-10-07 19:52:00
4:52 PM,64.0,46.9,54,30.05,10.0,NNW,15.0,-,N/A,,Mostly Cloudy,330,2012-10-07 20:52:00
5:52 PM,60.1,45.0,57,30.06,10.0,NNW,8.1,-,N/A,,Mostly Cloudy,340,2012-10-07 21:52:00
6:52 PM,59.0,46.0,62,30.05,10.0,NW,5.8,-,N/A,,Mostly Cloudy,320,2012-10-07 22:52:00
7:52 PM,57.9,44.1,60,30.07,10.0,NW,8.1,-,N/A,,Overcast,320,2012-10-07 23:52:00
8:52 PM,55.9,44.1,64,30.08,10.0,NW,10.4,-,N/A,,Mostly Cloudy,320,2012-10-08 00:52:00
9:52 PM,55.0,43.0,64,30.09,10.0,NW,9.2,-,N/A,,Overcast,320,2012-10-08 01:52:00
10:52 PM,53.1,42.1,66,30.09,10.0,NW,8.1,-,N/A,,Mostly Cloudy,310,2012-10-08 02:52:00
11:52 PM,53.1,42.1,66,30.07,10.0,NNW,4.6,-,N/A,,Overcast,330,2012-10-08 03:52:00